Location: The Saddle
(36.8333°N, 80.3417°W)
Time: 08:02:19
(UTC-05:00)

Vanguard 2 Rocket - Pass Details

Date: 17 December 2023
Orbit: 555 x 3309 km, 32.9° (Epoch: 02 March)

Event Time Altitude Azimuth Distance (km) Brightness Sun altitude
Rises 20:04:26 0° 273° (W) 7,197 12.5 -34.6°
Reaches altitude 10° 20:14:00 10° 251° (WSW) 6,256 11.8 -36.5°
Maximum altitude 20:20:45 13° 230° (SW) 5,899 11.5 -37.9°
Drops below altitude 10° 20:27:13 10° 210° (SSW) 5,877 11.3 -39.2°
Sets 20:35:39 0° 185° (S) 6,355 11.3 -40.8°
